Temperature
18 18 19 19 19 19 19 19 19 19 19 19 19 19 19 19 18 18 18 18 18 18 18 18 18 18 18 18 17 18 17 17 17 17 17 17 17 17 17 17 17 17 17
19 19 19 19 19 19 19 19 19 19 19 19 19 19 19 18 18 18 18 18 18 18 18 18 18 18 18 17 17 17 17 17 17 17 17 17 17 17 17 17 17 17 17
19 19 19 19 19 19 19 19 19 19 19 19 19 19 18 18 18 18 18 18 18 18 18 18 18 18 17 17 17 17 17 17 17 17 17 17 17 17 17 17 17 17 17
19 19 19 19 19 19 19 19 19 19 19 19 18 18 18 18 18 18 18 18 18 17 18 18 17 17 17 17 17 17 17 17 17 17 17 17 17 17 17 17 17 17 16
19 19 19 19 19 19 19 19 19 19 19 19 18 18 18 18 18 18 18 18 18 18 17 17 17 17 17 17 17 17 17 17 17 17 17 17 17 17 17 17 17 16 16
19 19 19 19 19 19 19 19 19 19 19 18 18 18 18 18 18 18 18 18 17 17 17 17 17 17 17 17 17 17 17 17 17 17 17 17 17 17 17 17 17 16 16
20 19 19 19 19 19 19 19 19 19 18 18 18 18 18 18 18 18 18 18 18 17 17 17 17 17 17 17 17 17 17 17 17 17 17 17 17 17 17 17 17 16 16
20 19 19 19 19 19 19 19 19 18 18 18 18 18 18 18 18 18 18 18 18 17 17 17 17 17 17 17 17 17 17 17 17 17 17 17 17 17 17 17 17 16 16
19 19 19 19 19 19 19 19 19 18 18 18 18 18 18 18 18 18 18 18 18 17 17 17 17 17 17 17 17 17 17 17 17 17 17 17 17 17 17 17 17 16 16
19 19 19 19 19 19 19 19 18 18 18 18 18 18 18 18 18 18 18 18 18 17 17 17 17 17 17 17 17 17 17 17 17 17 17 17 17 17 17 17 17 16 16
19 19 19 19 19 19 19 18 18 18 18 18 18 18 18 18 18 18 18 18 18 17 17 17 17 17 17 17 17 17 17 17 17 17 17 17 17 17 17 17 17 16 16
20 19 19 19 19 19 19 18 18 18 18 18 18 18 18 18 18 18 18 18 18 17 17 17 17 17 17 17 17 17 17 17 17 17 17 17 17 17 17 17 17 17 16
20 20 19 19 19 19 19 19 19 18 18 18 18 18 18 18 18 18 18 18 18 17 17 17 17 17 17 17 17 17 17 17 17 17 17 17 17 17 17 17 17 17 17
20 20 20 19 19 19 19 19 19 18 18 18 18 18 18 18 18 18 18 18 17 17 17 17 17 17 17 17 17 17 17 17 17 17 17 17 17 17 17 17 17 17 16
20 20 20 19 19 19 19 18 18 18 18 18 18 18 18 18 18 18 18 17 17 17 17 17 17 17 17 17 17 17 17 17 17 17 17 17 17 17 17 17 17 17 16
20 20 19 19 19 19 19 18 18 18 18 18 18 18 18 18 18 18 18 17 17 17 17 17 17 17 17 17 17 17 17 17 17 17 17 17 17 17 17 17 17 17 17
20 20 19 19 19 19 18 18 18 18 18 18 18 18 18 17 17 17 17 17 17 17 17 17 17 17 17 17 17 17 17 17 17 17 17 17 17 17 17 17 16 16 17
20 20 19 19 19 19 18 18 18 18 18 18 18 18 17 17 17 17 17 17 17 17 17 17 17 17 17 17 17 17 17 17 17 17 17 17 17 17 17 16 16 16 16
20 20 19 19 19 19 18 18 18 18 18 18 18 17 17 17 17 17 17 17 17 17 17 17 17 17 17 17 17 17 17 17 17 17 17 17 17 17 17 16 16 16 16
20 20 19 19 19 18 18 18 18 18 18 18 18 18 17 17 17 17 17 17 17 17 17 17 17 17 17 17 17 17 17 17 17 17 17 17 17 17 17 16 16 16 16
20 19 19 19 19 18 18 18 18 18 18 18 18 18 17 17 17 17 17 17 17 17 17 17 17 17 17 17 17 17 17 17 17 17 17 17 17 17 17 16 16 16 16
20 19 19 19 18 18 18 18 18 18 18 18 18 17 17 17 17 17 17 17 17 17 17 17 17 17 17 17 17 17 17 17 17 17 17 17 17 17 17 17 16 16 16
20 19 19 19 18 18 18 18 18 18 18 17 17 18 17 17 17 17 17 17 17 17 17 17 17 17 17 17 17 17 17 17 17 17 17 17 17 17 17 17 17 17 17
20 19 19 19 18 18 18 18 18 18 18 18 18 18 18 17 17 17 17 17 17 17 17 17 17 17 17 17 17 17 17 17 17 17 17 17 17 17 17 17 17 17 17
20 19 19 19 18 18 18 18 18 18 18 18 18 18 18 17 17 17 17 17 17 17 17 17 17 17 17 17 17 17 17 17 17 16 17 17 17 17 17 17 17 17 17
20 19 19 19 19 18 18 18 18 18 18 18 18 18 18 17 17 17 17 17 17 17 17 17 17 17 17 17 17 17 17 17 17 17 17 17 17 17 17 17 17 17 16
Wind_Speed
4 7 13 14 14 15 16 16 17 17 17 17 17 17 17 16 15 15 15 15 15 15 15 15 16 16 16 15 15 16 16 15 15 16 16 16 16 17 17 17 17 15 17
7 9 14 14 14 15 15 16 16 16 17 16 16 16 16 15 15 15 14 14 14 15 15 15 15 15 15 15 15 16 15 15 15 15 16 16 16 16 16 16 16 15 17
8 10 13 14 14 15 15 15 15 15 15 15 15 15 15 15 14 14 14 14 14 15 15 15 15 15 15 15 16 16 15 15 15 15 15 13 14 15 15 16 16 16 16
10 10 12 14 14 14 14 14 14 14 14 14 14 14 14 14 14 14 14 14 15 15 15 15 15 14 15 15 16 15 15 15 16 15 13 12 12 15 15 15 15 15 15
9 10 13 15 14 14 14 13 14 13 13 13 13 13 13 13 14 14 14 14 14 14 14 15 15 14 14 14 15 14 15 15 14 13 12 12 12 14 15 14 14 15 15
7 9 13 15 14 14 13 13 13 12 12 12 12 12 12 13 13 13 13 13 13 13 13 14 14 14 14 14 14 14 15 14 13 12 12 11 11 13 13 14 14 15 14
7 9 12 14 14 13 13 12 12 12 11 11 11 12 12 12 13 12 12 12 12 12 13 13 13 13 13 13 13 13 14 14 12 12 11 10 11 12 13 14 15 14 14
8 8 11 14 13 13 12 12 11 11 11 11 11 11 11 11 12 12 12 12 12 11 11 12 12 12 11 12 13 13 13 13 11 11 10 10 11 12 13 14 14 14 14
7 7 8 10 11 12 12 11 11 10 10 10 10 10 10 10 10 10 11 11 11 11 10 11 11 11 11 12 13 13 12 12 10 9 9 9 11 12 12 12 12 13 12
5 5 6 7 8 9 9 11 10 10 10 10 10 10 10 10 10 9 9 10 11 10 10 10 10 10 11 11 12 12 11 10 9 7 7 8 10 11 11 11 11 12 12
6 4 4 5 6 7 7 9 9 9 9 9 9 9 8 8 8 7 8 9 9 9 9 9 10 10 10 9 9 10 9 7 7 6 6 8 9 10 10 10 11 11 11
8 6 4 5 5 6 6 7 6 6 7 7 7 8 8 7 6 6 6 7 7 7 7 7 8 9 8 7 7 8 7 6 6 5 6 8 9 9 10 10 10 10 10
8 8 6 5 6 5 4 6 5 5 6 6 7 7 7 6 5 5 4 4 5 5 5 6 7 6 5 5 5 6 6 5 5 5 6 8 8 9 9 9 9 9 9
8 8 7 6 5 5 4 5 5 5 4 4 5 6 5 4 3 3 3 3 3 3 4 4 4 4 4 4 5 5 5 5 5 5 6 7 7 8 9 9 9 9 9
8 8 7 7 6 5 4 4 4 4 4 4 4 5 5 4 3 2 2 2 2 2 2 2 3 3 3 3 3 4 5 5 5 5 5 7 8 8 8 8 9 9 9
9 8 6 6 6 5 4 3 4 5 5 5 5 6 7 6 4 3 2 2 2 2 1 2 2 2 2 2 2 3 4 4 4 5 5 6 8 8 8 8 9 9 9
8 7 7 7 6 6 5 5 5 5 6 5 6 7 7 7 6 4 2 2 2 3 2 2 2 2 2 1 1 2 3 4 4 5 5 5 6 8 9 9 9 10 10
7 7 8 8 7 7 6 5 5 6 6 6 6 7 8 8 8 5 3 3 3 3 3 2 2 1 1 1 1 1 2 3 4 5 6 6 6 7 8 9 10 10 10
8 8 8 6 7 7 6 5 4 5 5 6 6 6 7 8 9 7 4 4 4 3 3 2 2 2 2 1 1 1 1 2 3 5 6 7 7 8 8 9 10 11 11
6 6 7 6 6 6 5 4 3 2 2 4 5 6 7 8 8 7 5 5 5 3 2 2 2 2 1 2 1 0 1 2 3 4 6 7 8 9 9 9 9 10 11
5 6 6 6 5 4 3 4 4 3 3 3 4 6 7 7 7 7 4 4 4 4 4 4 2 2 1 1 1 1 2 1 3 4 5 5 7 8 8 9 8 8 8
6 5 5 6 6 5 4 3 3 3 2 3 3 4 6 7 7 6 5 4 4 3 3 4 3 2 2 2 2 1 1 3 2 2 3 4 5 5 6 8 8 9 9
6 6 6 6 6 6 5 3 3 2 1 1 1 2 4 7 8 7 6 5 5 4 5 5 5 5 3 2 2 3 3 3 2 2 1 2 3 3 4 6 7 8 8
6 5 5 6 6 5 6 5 5 4 3 3 3 3 3 6 7 7 7 7 6 5 5 5 5 4 4 4 2 2 2 3 2 1 2 1 1 2 3 3 4 6 7
5 5 5 5 5 5 5 6 5 3 3 2 2 2 3 3 5 6 7 6 5 5 6 6 5 6 5 5 4 3 2 2 2 3 3 2 1 1 2 2 2 3 4
4 4 4 5 4 5 5 5 5 5 4 3 3 3 2 2 2 4 5 5 5 5 6 6 6 6 6 5 4 4 4 3 3 4 4 3 2 1 1 1 1 1 2
Wind_Direction
140 142 129 121 116 111 107 105 104 104 105 105 106 107 107 107 108 107 106 105 104 103 103 103 103 103 104 104 105 106 107 110 113 113 113 112 112 114 114 114 112 113 114
138 141 132 125 119 114 110 106 105 105 106 106 107 108 108 108 108 107 107 106 106 106 105 104 104 103 103 104 105 106 107 109 111 112 113 112 112 113 113 114 114 117 116
129 136 132 128 122 117 113 110 108 107 107 107 108 108 109 108 108 107 107 107 107 106 105 104 105 105 106 107 105 105 105 105 107 107 105 106 111 113 114 115 116 117 117
131 132 133 131 126 122 118 114 112 111 111 111 110 110 110 110 110 108 107 107 107 105 104 105 104 105 107 106 106 105 103 102 104 103 99 102 108 110 112 116 117 119 119
126 133 139 134 130 126 122 119 116 115 115 114 113 112 111 109 109 108 108 107 107 107 107 105 104 105 108 108 108 106 104 102 103 99 98 100 108 113 114 117 121 122 121
124 136 142 136 133 130 126 123 120 119 117 116 115 114 112 111 111 110 109 108 107 107 107 106 106 105 105 108 110 109 109 107 102 101 100 104 109 114 117 120 121 122 121
131 137 143 140 138 135 132 129 126 124 121 119 117 116 115 114 114 112 111 111 108 107 107 107 107 106 105 107 109 111 111 112 109 107 106 108 112 113 117 120 121 121 119
136 136 144 144 142 139 136 133 132 129 126 123 119 118 118 117 115 115 115 114 111 110 109 110 108 106 106 110 115 114 115 117 117 113 111 113 115 114 116 120 122 123 122
127 127 133 141 145 143 141 139 138 134 131 129 125 123 121 119 117 116 116 114 113 111 109 109 108 105 105 112 118 119 120 121 119 119 120 120 122 123 121 122 122 123 124
116 117 121 127 135 140 145 145 144 142 138 134 132 130 126 123 119 116 114 115 114 111 108 108 108 105 107 113 120 123 123 121 121 121 125 130 130 130 130 131 131 131 130
145 134 128 126 130 138 145 151 148 146 142 136 134 130 114 105 109 112 118 117 116 113 109 108 107 106 105 109 120 124 121 122 124 128 136 141 142 140 139 139 139 137 136
170 168 153 145 145 148 154 140 133 128 126 121 117 117 114 111 110 112 117 116 113 109 106 102 102 98 97 99 106 116 125 129 128 138 149 151 152 150 148 147 146 144 143
175 174 168 165 161 156 140 137 127 121 119 120 122 125 122 114 103 98 91 87 89 90 83 85 86 88 96 103 109 122 136 137 141 149 158 160 160 159 156 155 155 156 156
174 182 173 170 167 164 150 144 139 134 131 132 138 143 137 125 117 112 105 95 88 88 88 88 91 91 95 113 129 139 147 147 151 157 168 169 170 169 167 166 167 167 165
184 186 180 174 174 166 153 155 155 154 152 157 166 173 168 156 153 147 144 138 127 119 106 98 96 89 93 105 134 150 161 163 163 169 179 182 182 181 179 178 177 177 176
189 187 179 180 177 170 166 165 167 169 169 172 188 193 189 180 174 171 176 179 177 169 154 132 123 111 102 113 135 153 166 173 176 179 190 195 195 194 195 193 190 189 188
186 182 180 187 180 180 177 180 179 179 177 182 194 200 199 195 189 184 191 207 212 190 167 143 119 114 118 122 132 159 172 184 188 195 200 203 206 208 208 207 205 203 202
177 179 185 191 182 183 184 182 178 180 181 191 197 202 206 203 198 191 200 219 211 176 161 154 143 126 120 135 158 195 190 198 206 208 206 208 211 216 219 219 218 217 216
177 177 181 183 177 183 181 171 175 176 183 190 194 203 207 206 202 196 204 213 197 172 169 178 160 156 166 178 197 212 210 215 222 219 216 217 217 221 225 228 228 227 227
168 173 177 176 174 169 158 146 146 170 183 185 195 204 204 205 201 194 199 202 185 170 176 175 163 154 163 176 199 261 257 238 230 228 228 225 225 227 229 231 233 236 237
152 159 167 167 164 155 157 164 166 190 188 189 205 205 201 201 198 191 195 189 182 185 194 183 163 160 172 139 100 354 331 270 241 236 230 228 231 231 230 230 233 235 241
161 162 166 171 167 170 177 169 163 165 184 190 196 200 199 194 195 199 195 193 191 186 190 187 172 159 180 164 153 129 334 330 311 253 234 230 236 230 230 231 229 232 234
171 175 180 178 174 174 164 140 122 107 89 116 189 210 208 200 201 203 199 196 195 191 201 201 187 180 189 195 184 162 173 233 299 326 268 240 233 230 239 235 229 232 233
186 177 175 177 177 177 166 164 165 174 188 200 206 216 215 205 202 205 206 202 201 201 205 210 200 193 180 196 201 209 198 174 184 292 321 297 249 241 245 242 234 232 230
175 173 174 172 177 177 172 173 171 180 196 194 196 203 216 209 206 209 207 202 205 208 211 211 202 198 193 194 194 186 192 197 199 205 257 290 312 270 248 238 231 227 225
165 170 169 170 181 179 176 175 177 186 194 185 191 203 216 218 218 217 209 205 211 213 215 213 208 204 203 201 201 193 183 186 195 197 226 247 264 281 275 254 246 230 224
Height
1528 1529 1531 1532 1533 1533 1534 1535 1535 1536 1536 1537 1538 1539 1540 1541 1542 1543 1543 1544 1545 1546 1546 1547 1548 1549 1550 1551 1552 1553 1554 1555 1556 1557 1558 1559 1560 1561 1563 1564 1565 1567 1568
1529 1531 1532 1534 1535 1536 1536 1537 1538 1538 1539 1540 1540 1541 1542 1543 1544 1545 1545 1546 1547 1548 1549 1549 1550 1552 1552 1553 1554 1555 1556 1557 1558 1559 1560 1561 1562 1564 1565 1566 1567 1569 1570
1530 1532 1534 1535 1537 1538 1539 1539 1540 1541 1541 1542 1543 1544 1544 1545 1546 1547 1548 1549 1549 1550 1551 1552 1553 1554 1555 1556 1557 1558 1559 1559 1560 1561 1562 1563 1565 1566 1567 1568 1570 1571 1572
1532 1534 1535 1537 1538 1540 1541 1541 1542 1543 1544 1544 1545 1546 1547 1548 1548 1549 1550 1551 1552 1553 1554 1554 1555 1556 1557 1558 1559 1560 1561 1562 1562 1563 1564 1566 1567 1568 1569 1570 1572 1573 1575
1533 1535 1537 1539 1540 1541 1543 1544 1544 1545 1546 1547 1548 1548 1549 1550 1551 1552 1552 1553 1554 1555 1556 1557 1558 1559 1560 1561 1562 1563 1563 1564 1565 1566 1567 1568 1569 1570 1571 1572 1573 1575 1576
1535 1537 1539 1541 1542 1543 1544 1545 1546 1547 1548 1549 1550 1551 1551 1552 1553 1554 1555 1556 1557 1558 1559 1560 1560 1561 1562 1563 1564 1565 1566 1566 1567 1568 1569 1570 1572 1572 1573 1574 1575 1577 1578
1536 1539 1541 1543 1544 1545 1546 1547 1548 1549 1550 1551 1552 1553 1553 1554 1555 1556 1557 1558 1559 1560 1561 1562 1563 1564 1565 1566 1567 1567 1568 1569 1570 1571 1572 1573 1573 1574 1574 1575 1577 1579 1580
1538 1540 1542 1544 1546 1547 1548 1549 1550 1551 1552 1553 1554 1555 1556 1557 1557 1558 1559 1560 1561 1562 1563 1564 1565 1566 1567 1568 1569 1570 1570 1571 1572 1573 1574 1575 1576 1576 1576 1578 1579 1581 1582
1540 1542 1544 1545 1547 1549 1550 1551 1552 1553 1554 1555 1556 1557 1558 1559 1559 1560 1561 1562 1563 1564 1565 1566 1567 1568 1570 1570 1571 1572 1572 1573 1574 1575 1576 1577 1577 1578 1579 1580 1581 1582 1584
1542 1544 1545 1546 1548 1550 1551 1553 1554 1555 1556 1557 1558 1559 1560 1561 1562 1562 1563 1564 1565 1566 1567 1568 1569 1571 1572 1572 1573 1574 1575 1575 1576 1577 1577 1578 1579 1580 1581 1582 1583 1584 1585
1542 1544 1546 1548 1549 1551 1553 1554 1555 1556 1557 1558 1559 1560 1561 1562 1563 1564 1565 1566 1567 1568 1569 1570 1571 1573 1574 1575 1575 1576 1577 1577 1578 1578 1579 1580 1581 1581 1582 1583 1584 1586 1587
1542 1544 1547 1548 1550 1552 1553 1555 1556 1557 1559 1560 1561 1562 1563 1564 1565 1566 1567 1568 1569 1570 1571 1572 1573 1574 1575 1576 1577 1578 1578 1579 1580 1580 1581 1581 1582 1583 1583 1584 1586 1587 1588
1543 1545 1547 1549 1551 1553 1554 1556 1557 1558 1560 1561 1562 1563 1564 1566 1566 1568 1569 1570 1571 1572 1573 1574 1575 1576 1577 1578 1579 1579 1580 1580 1581 1581 1582 1582 1583 1584 1585 1586 1587 1588 1589
1543 1545 1547 1549 1551 1553 1555 1556 1558 1559 1561 1562 1564 1565 1566 1567 1568 1569 1570 1571 1572 1573 1574 1575 1576 1577 1578 1579 1580 1580 1581 1582 1582 1582 1583 1583 1584 1585 1585 1586 1587 1588 1589
1543 1546 1548 1550 1552 1554 1555 1557 1559 1561 1562 1563 1565 1566 1567 1568 1569 1571 1572 1573 1574 1575 1576 1577 1577 1578 1579 1580 1580 1581 1582 1582 1583 1583 1584 1584 1585 1585 1586 1587 1588 1588 1589
1543 1546 1548 1550 1552 1554 1556 1557 1559 1561 1562 1564 1565 1567 1568 1569 1570 1571 1572 1574 1574 1575 1576 1577 1578 1579 1580 1581 1581 1582 1582 1583 1583 1584 1584 1585 1585 1586 1586 1587 1588 1589 1589
1543 1545 1548 1550 1552 1554 1555 1557 1559 1561 1562 1564 1565 1567 1568 1570 1571 1572 1573 1574 1575 1576 1577 1578 1579 1580 1580 1581 1581 1582 1582 1583 1583 1584 1584 1585 1585 1586 1587 1587 1588 1588 1589
1543 1545 1547 1549 1551 1553 1554 1556 1558 1560 1562 1564 1565 1567 1568 1569 1571 1572 1573 1574 1575 1576 1577 1578 1579 1580 1580 1581 1581 1582 1582 1583 1583 1584 1584 1585 1585 1586 1586 1587 1588 1588 1589
1543 1544 1546 1548 1550 1552 1554 1555 1557 1559 1561 1563 1564 1566 1567 1569 1570 1571 1573 1574 1575 1576 1576 1577 1578 1579 1580 1581 1581 1581 1582 1582 1583 1583 1584 1584 1585 1585 1586 1586 1587 1587 1588
1542 1544 1545 1547 1549 1551 1553 1554 1556 1558 1560 1562 1563 1565 1566 1568 1569 1571 1572 1573 1574 1575 1576 1577 1578 1579 1579 1580 1580 1581 1581 1581 1582 1582 1583 1583 1584 1585 1585 1585 1586 1586 1587
1541 1542 1544 1546 1548 1550 1551 1552 1554 1556 1559 1560 1562 1564 1565 1567 1568 1570 1571 1572 1573 1574 1575 1576 1577 1578 1578 1579 1579 1580 1580 1580 1580 1581 1581 1582 1582 1583 1584 1584 1585 1585 1585
1540 1541 1543 1544 1546 1548 1550 1552 1553 1555 1557 1559 1561 1562 1564 1565 1567 1568 1569 1571 1572 1573 1574 1575 1576 1576 1577 1578 1578 1579 1579 1580 1579 1579 1579 1579 1580 1581 1581 1582 1582 1583 1583
1538 1540 1541 1543 1544 1546 1548 1550 1552 1554 1555 1557 1559 1560 1562 1564 1565 1566 1568 1569 1570 1571 1572 1573 1574 1575 1575 1576 1577 1578 1577 1577 1577 1577 1577 1577 1578 1578 1579 1579 1580 1580 1581
1537 1539 1540 1541 1543 1545 1546 1548 1550 1552 1553 1555 1557 1558 1560 1562 1563 1565 1565 1567 1568 1569 1569 1571 1572 1572 1573 1574 1575 1575 1576 1576 1576 1575 1576 1575 1575 1576 1576 1577 1577 1577 1578
1536 1537 1539 1540 1542 1543 1545 1546 1548 1550 1552 1554 1555 1557 1558 1560 1561 1562 1563 1564 1565 1566 1567 1568 1569 1570 1571 1571 1572 1572 1573 1573 1574 1574 1573 1573 1573 1573 1574 1574 1574 1574 1575
1535 1536 1538 1539 1540 1542 1544 1545 1547 1548 1550 1551 1553 1555 1556 1557 1559 1560 1561 1562 1562 1563 1564 1565 1566 1567 1568 1568 1569 1570 1570 1571 1571 1571 1571 1570 1570 1571 1571 1571 1571 1571 1571